Registrering Status Plassering
LN-FAW Operativ Ski - ENSI 

Søk
Kontakt informasjon

Follo flyklubb.
Postboks 226, N-1401 Ski
Epost: post@follo-flyklubb.no

Tel: 47 25 54 90
Du er her: Hovedside

Velkommen til Follo flyklubb

 

Follo flyklubb er en flyklubb med primærbase på Ski flyplass, og sekundærbase (vinterbase) på Rakkestad flyplass. Disse websidene er ment som en informasjonskanal til flyklubbens medlemmer, og andre som måtte være interessert i Follo flyklubbs virksomhet. Har du kommentarer eller bidrag du ønsker å dele med flyklubben, send oss en melding her.

Har noen av flyklubbens medlemmer forslag til turer, aktiviteter eller kurs- og infokvelder dere ønsker at vi deltar på eller avholder, så gi beskjed til styret via epost.

 

Før flyturen: Ta en sjekk på datoer i sertifikatene dine. Husk at det er forskjell på gyldighetsdato for PPL-sertifikatet og klasserettighet, som f.eks. SEP. Her er noen nyttige spørsmål, og litt om rettigheter her.

ENGM 182350Z 21007KT CAVOK 11/09 Q1007
ENTO 182350Z AUTO 21010KT 9999 NCD 13/11 Q1010
ENRY 182350Z AUTO 22010KT 9999NDV NCD 14/10 Q1009
ENSN 090850Z 20010G22KT 150V240 CAVOK 07/03 Q1000
ENCN 182350Z AUTO 24006KT 9999 NCD 14/12 Q1013
ENZV 182350Z 27007KT 9999 VCSH FEW020 BKN051 15/11 Q1013
ENFL 182350Z AUTO 26012KT 9999NDV FEW022/// OVC044/// 13/09 Q1008
ENFG 220850Z 19007KT CAVOK 06/M03 Q1014
ENNO 171650Z 22004KT 170V300 9999 SCT060 19/08 Q1010
 

Leie av LN-FAW

Follo flyklubbs medlemmer har anledning til å leie LN-FAW, booking skjer via MyWebLog. Husk å loggføre turen etter turen.